Weather History for Victoria, BC

Change the Weather History Date:

Tuesday, January 28, 2014

  Actual Average Record
Temperature  
Mean Temperature 40 °F -  
Max Temperature 45 °F 47 °F 51 °F (2004)
Min Temperature 36 °F 34 °F 23 °F (2008)
Degree Days  
Heating Degree Days 24    
Moisture  
Dew Point 42 °F    
Average Humidity 97    
Maximum Humidity 100    
Minimum Humidity 87    
Precipitation  
Precipitation 0.08 in 0.13 in - ()
Sea Level Pressure  
Sea Level Pressure 30.16 in    
Wind  
Wind Speed 3 mph ()    
Max Wind Speed 6 mph    
Max Gust Speed -    
Visibility 6.6 miles    
Events Rain    
Averages and records for this station are not official NWS values.
T = Trace of Precipitation, MM = Missing Value Source: Averaged Metar Reports

Daily Weather History Graph

Daily Weather History Graph

Search for Another Location

Airport:

Trip Planner

Search our weather history database for the weather conditions in past years. The results will help you decide how hot, cold, wet, or windy it might be!

Date:

Astronomy

Jan. 28, 2014 Rise Set
Actual Time 7:48 AM PST 5:05 PM PST
Civil Twilight 7:13 AM PST 5:40 PM PST
Nautical Twilight 6:35 AM PST 6:18 PM PST
Astronomical Twilight 5:59 AM PST 6:55 PM PST
Moon 5:38 AM PST (1/28) 2:59 PM PST (1/28)
Length of Visible Light 10h 26m
Length of Day
9h 17m
Waning Crescent, 6% of the Moon is Illuminated
Jan 28
Waning Crescent
Jan 30
New
Feb 6
First Quarter
Feb 14
Full
Feb 22
Last Quarter

Hourly Weather History & Observations

Time (PST) Temp. Windchill Dew Point Humidity Pressure Visibility Wind Dir Wind Speed Gust Speed Precip Events Conditions
12:00 AM 41.0 °F - 39.2 °F 93% 30.22 in 8.0 mi WNW 2.3 mph - N/A Rain Light Rain
1:00 AM 39.2 °F 35.0 °F 39.2 °F 100% 30.22 in 8.0 mi West 5.8 mph - N/A   Overcast
2:00 AM 41.0 °F 39.0 °F 39.2 °F 93% 30.23 in 8.0 mi West 3.5 mph - N/A   Overcast
2:19 AM 41.0 °F 39.0 °F 39.2 °F 93% 30.22 in 8.0 mi WSW 3.5 mph - N/A Rain Light Rain
3:00 AM 41.0 °F - 41.0 °F 100% 30.22 in 8.0 mi Calm Calm - N/A Rain Light Rain
3:33 AM 41.0 °F - 41.0 °F 100% 30.21 in 8.0 mi WSW 2.3 mph - N/A   Overcast
4:00 AM 41 °F - 40 °F 95% 30.22 in 12 mi West 3.5 mph - - Rain Light Rain
4:00 AM 41.0 °F 38.0 °F 41.0 °F 100% 30.21 in 12.0 mi West 4.6 mph - N/A   Overcast
5:00 AM 41.0 °F 38.0 °F 41.0 °F 100% 30.21 in 12.0 mi WNW 4.6 mph - N/A   Overcast
6:00 AM 41.0 °F 39.0 °F 41.0 °F 100% 30.22 in 8.0 mi West 3.5 mph - N/A Rain Light Rain
7:00 AM 41.0 °F - 41.0 °F 100% 30.22 in 8.0 mi WSW 2.3 mph - N/A Rain Light Rain
7:12 AM 41.0 °F - 41.0 °F 100% 30.22 in 8.0 mi WNW 2.3 mph - N/A   Light Drizzle
7:26 AM 41.0 °F 39.0 °F 41.0 °F 100% 30.24 in 8.0 mi West 3.5 mph - N/A   Overcast
8:00 AM 41.0 °F - 41.0 °F 100% 30.23 in 8.0 mi Calm Calm - N/A   Overcast
8:23 AM 41.0 °F - 41.0 °F 100% 30.23 in 3.0 mi Calm Calm - N/A   Overcast
9:00 AM 42.8 °F 41.1 °F 42.8 °F 100% 30.23 in 3.0 mi NNE 3.5 mph - N/A   Overcast
10:00 AM 43 °F - 42 °F 96% 30.24 in 3 mi NE 4.6 mph - -   Mist
10:00 AM 42.8 °F 40.1 °F 42.8 °F 100% 30.23 in 3.0 mi NNE 4.6 mph - N/A   Overcast
10:37 AM 42.8 °F 40.1 °F 42.8 °F 100% 30.23 in 4.0 mi ENE 4.6 mph - N/A   Overcast
11:00 AM 44.6 °F 43.1 °F 41.0 °F 87% 30.22 in 4.0 mi East 3.5 mph - N/A   Overcast
12:00 PM 44.6 °F 43.1 °F 42.8 °F 93% 30.21 in 15.0 mi NE 3.5 mph - N/A   Overcast
1:00 PM 44.6 °F 42.2 °F 42.8 °F 93% 30.19 in 15.0 mi WNW 4.6 mph - N/A   Overcast
2:00 PM 44.6 °F 42.2 °F 41.0 °F 87% 30.18 in 8.0 mi NNE 4.6 mph - N/A   Overcast
3:00 PM 44.6 °F 42.2 °F 42.8 °F 93% 30.17 in 5.0 mi NNE 4.6 mph - N/A Rain Light Rain
3:27 PM 44.6 °F 42.2 °F 42.8 °F 93% 30.16 in 5.0 mi NNE 4.6 mph - N/A   Overcast
3:55 PM 44.6 °F 43.1 °F 42.8 °F 93% 30.17 in 5.0 mi NNE 3.5 mph - N/A Rain Light Rain
4:00 PM 44 °F - 42 °F 89% 30.17 in 5 mi NNE 4.6 mph - - Rain Light Rain
4:00 PM 44.6 °F 42.2 °F 42.8 °F 93% 30.17 in 5.0 mi NNE 4.6 mph - N/A Rain Light Rain
4:18 PM 44.6 °F 42.2 °F 42.8 °F 93% 30.17 in 5.0 mi NNE 4.6 mph - N/A   Overcast
5:00 PM 44.6 °F 42.2 °F 42.8 °F 93% 30.16 in 5.0 mi North 4.6 mph - N/A   Overcast
5:33 PM 44.6 °F 42.2 °F 42.8 °F 93% 30.13 in 5.0 mi North 4.6 mph - N/A   Overcast
6:00 PM 42.8 °F 41.1 °F 42.8 °F 100% 30.12 in 5.0 mi NNW 3.5 mph - N/A   Overcast
6:38 PM 42.8 °F 41.1 °F 42.8 °F 100% 30.10 in 5.0 mi NNW 3.5 mph - N/A   Overcast
7:00 PM 42.8 °F - 41.0 °F 93% 30.09 in 5.0 mi NNW 2.3 mph - N/A   Overcast
8:00 PM 42.8 °F 40.1 °F 42.8 °F 100% 30.06 in 8.0 mi West 4.6 mph - N/A   Overcast
9:00 PM 42.8 °F 41.1 °F 42.8 °F 100% 30.05 in 7.0 mi West 3.5 mph - N/A   Overcast
10:00 PM 43 °F - 42 °F 96% 30.02 in 6 mi WNW 4.6 mph - -   Partly Cloudy
10:00 PM 42.8 °F 40.1 °F 42.8 °F 100% 30.01 in 6.0 mi WNW 4.6 mph - N/A   Overcast
10:30 PM 42.8 °F 39.3 °F 42.8 °F 100% 30.00 in 3.0 mi WNW 5.8 mph - N/A   Light Drizzle
11:00 PM 42.8 °F 40.1 °F 42.8 °F 100% 29.98 in 3.0 mi West 4.6 mph - N/A   Light Drizzle
11:17 PM 42.8 °F 40.1 °F 42.8 °F 100% 29.97 in 2.0 mi West 4.6 mph - N/A   Light Drizzle